FW6396 Weather Reports


time (UTC)temp
F
wind
direction
speed
knots
gust
knots
rain 1hr
in
rain 24hr
in
rain mn
in
humidity
%
barometer
mb
20260508031556 49 0 0.0 0.0 0.00 0.00 0.00 76 1011.1
20260508030054 49 0 0.0 0.0 0.00 0.00 0.00 76 1011.1
20260508024554 49 0 0.0 0.0 0.00 0.00 0.00 77 1011.2
20260508023052 49 0 0.0 0.0 0.00 0.00 0.00 77 1011.0
20260508021554 49 0 0.0 0.0 0.00 0.00 0.00 77 1011.0
20260508014551 49 0 0.0 0.0 0.00 0.00 0.00 79 1010.8
20260508013050 49 0 0.0 0.0 0.00 0.00 0.00 81 1010.8
20260508011548 49 0 0.0 0.0 0.00 0.00 0.00 81 1010.7
20260508010054 50 0 0.0 0.0 0.00 0.00 0.00 80 1010.8
20260508004552 50 0 0.0 0.0 0.00 0.00 0.00 78 1010.9
20260508003048 50 0 0.0 0.0 0.00 0.00 0.00 78 1010.7
20260508001552 50 0 0.0 0.0 0.00 0.00 0.00 78 1010.8
20260508000051 50 0 0.0 0.0 0.00 0.00 0.00 77 1010.7
20260507234549 50 0 0.0 0.0 0.00 0.00 0.00 76 1010.6
20260507233053 50 0 0.0 0.0 0.00 0.00 0.00 76 1010.6
20260507231555 50 0 0.0 0.0 0.00 0.00 0.00 75 1010.6
20260507230056 49 0 0.0 0.0 0.00 0.00 0.00 76 1010.5
20260507224552 49 0 0.0 0.0 0.00 0.00 0.00 76 1010.6
20260507223050 49 0 0.0 0.0 0.00 0.00 0.00 76 1010.6
20260507221554 49 0 0.0 0.0 0.00 0.00 0.00 76 1010.7
20260507220055 50 0 0.0 0.0 0.00 0.00 0.00 75 1010.8
20260507214604 50 0 0.0 0.0 0.00 0.00 0.00 75 1010.7
20260507213056 50 0 0.0 0.0 0.00 0.00 0.00 75 1010.8
20260507211551 50 0 0.0 0.0 0.00 0.00 0.00 75 1010.7
20260507210105 51 0 0.0 0.0 0.00 0.00 0.00 74 1010.7
20260507204557 52 0 0.0 0.0 0.00 0.00 0.00 73 1010.6
20260507203105 53 0 0.0 0.0 0.00 0.00 0.00 70 1010.4
20260507201557 53 0 0.0 0.0 0.00 0.00 0.00 69 1010.4
20260507200107 53 0 0.0 0.0 0.00 0.00 0.00 68 1010.5
20260507194556 54 0 0.0 0.0 0.00 0.00 0.00 66 1010.2
20260507193058 55 0 0.0 0.0 0.00 0.00 0.00 63 1010.1
20260507191551 56 0 0.0 0.0 0.00 0.00 0.00 62 1010.0
20260507190105 56 0 0.0 0.0 0.00 0.00 0.00 60 1010.0
20260507184603 56 0 0.0 0.0 0.00 0.00 0.00 58 1009.8
20260507183101 57 0 0.0 0.0 0.00 0.00 0.00 56 1009.7
20260507181554 58 0 0.0 0.0 0.00 0.00 0.00 55 1009.7
20260507180050 59 0 0.0 0.0 0.00 0.00 0.00 53 1009.6
20260507174553 60 0 0.0 0.0 0.00 0.00 0.00 53 1009.5
20260507173054 59 0 0.0 0.0 0.00 0.00 0.00 54 1009.4
20260507171551 60 0 0.0 0.0 0.00 0.00 0.00 54 1009.5
20260507170100 59 0 0.0 0.0 0.00 0.00 0.00 56 1009.6
20260507164558 58 0 0.0 0.0 0.00 0.00 0.00 58 1009.6
20260507163047 57 0 0.0 0.0 0.00 0.00 0.00 62 1009.8
20260507161551 55 0 0.0 0.0 0.00 0.00 0.00 69 1009.8
20260507160055 55 0 0.0 0.0 0.00 0.00 0.00 70 1009.9
20260507154555 56 0 0.0 0.0 0.00 0.00 0.00 67 1010.0
20260507153048 56 0 0.0 0.0 0.00 0.00 0.00 70 1010.0
20260507151550 56 0 0.0 0.0 0.00 0.00 0.00 73 1010.1
20260507150048 55 0 0.0 0.0 0.00 0.00 0.00 76 1010.1
20260507144553 55 0 0.0 0.0 0.00 0.00 0.00 75 1010.3
20260507143059 57 0 0.0 0.9 0.00 0.00 0.00 63 1010.4
20260507141553 57 0 0.0 0.0 0.00 0.00 0.00 63 1010.2
20260507140049 56 0 0.0 0.9 0.00 0.00 0.00 64 1010.3
20260507134552 56 0 0.0 3.5 0.00 0.00 0.00 62 1010.3
20260507133120 55 0 0.0 0.9 0.00 0.00 0.00 65 1010.6
20260507131554 55 0 0.0 0.0 0.00 0.00 0.00 64 1010.8
20260507130107 56 0 0.0 6.1 0.00 0.00 0.00 62 1010.6
20260507124552 56 0 0.0 0.9 0.00 0.00 0.00 63 1010.7
20260507123054 57 0 0.0 0.9 0.00 0.00 0.00 60 1010.8
20260507121606 57 0 0.0 7.8 0.00 0.00 0.00 61 1010.9
20260507120059 57 0 0.0 0.0 0.00 0.00 0.00 61 1011.0
20260507114635 57 0 0.0 5.2 0.00 0.00 0.00 60 1011.0
20260507113051 57 0 0.0 2.6 0.00 0.00 0.00 61 1011.0
20260507111558 57 0 0.0 1.7 0.00 0.00 0.00 60 1011.0
20260507110050 56 0 0.0 0.9 0.00 0.00 0.00 61 1011.0
20260507104554 56 0 0.0 0.0 0.00 0.00 0.00 61 1011.2
20260507103053 56 0 0.0 0.0 0.00 0.00 0.00 61 1011.2
20260507101550 56 0 0.0 0.0 0.00 0.00 0.00 60 1011.2
20260507100057 56 0 0.0 0.0 0.00 0.00 0.00 59 1011.1
20260507094550 56 0 0.0 0.0 0.00 0.00 0.00 60 1011.3
20260507093052 54 0 0.0 3.5 0.00 0.00 0.00 62 1011.3
20260507091554 53 0 0.0 0.0 0.00 0.00 0.00 64 1011.4
20260507090054 53 0 0.0 0.9 0.00 0.00 0.00 64 1011.4
20260507084558 52 0 0.0 0.0 0.00 0.00 0.00 65 1011.6
20260507083054 51 0 0.0 0.9 0.00 0.00 0.00 66 1011.6
20260507081554 51 0 0.0 0.0 0.00 0.00 0.00 67 1011.6
20260507080117 51 0 0.0 0.0 0.00 0.00 0.00 68 1011.6
20260507074555 50 0 0.0 0.0 0.00 0.00 0.00 68 1011.9
20260507073052 50 0 0.0 0.0 0.00 0.00 0.00 68 1011.9
20260507071550 49 0 0.0 0.0 0.00 0.00 0.00 69 1011.8
20260507070048 49 0 0.0 0.0 0.00 0.00 0.00 68 1011.8
20260507064552 48 0 0.0 0.0 0.00 0.00 0.00 70 1011.7
20260507063057 47 0 0.0 0.0 0.00 0.00 0.00 72 1012.0
20260507061546 47 0 0.0 0.0 0.00 0.00 0.00 70 1011.9
20260507060051 47 0 0.0 0.9 0.00 0.00 0.00 71 1012.1
20260507054552 47 0 0.0 0.0 0.00 0.00 0.00 71 1012.0
20260507053053 46 0 0.0 0.0 0.00 0.00 0.00 71 1012.0
20260507051552 46 0 0.0 0.9 0.00 0.00 0.00 71 1012.0
20260507050056 46 0 0.0 0.0 0.00 0.00 0.00 72 1012.3
20260507044553 46 0 0.0 0.0 0.00 0.00 0.00 72 1012.4
20260507043050 46 0 0.0 0.0 0.00 0.00 0.00 71 1012.5
20260507041553 46 0 0.0 0.0 0.00 0.00 0.00 72 1012.4
20260507040056 46 0 0.0 0.0 0.00 0.00 0.00 72 1012.5
20260507034555 46 0 0.0 0.0 0.00 0.00 0.00 73 1012.5
20260507033055 46 0 0.0 0.0 0.00 0.00 0.00 72 1012.8